Weather History for PAMR - December, 2012

Change the Weather History Date:

Saturday, December 8, 2012

  Actual Average Record
Temperature  
Mean Temperature 10 °F -  
Max Temperature 21 °F 21 °F 46 °F (2005)
Min Temperature -2 °F 10 °F -7 °F (2001)
Degree Days  
Heating Degree Days 56    
Moisture  
Dew Point 8 °F    
Average Humidity 83    
Maximum Humidity 93    
Minimum Humidity 68    
Precipitation  
Precipitation 0.16 in - - ()
Snow  
Snow 0.00 in - - ()
Snow Depth 2.00 in    
Sea Level Pressure  
Sea Level Pressure 29.61 in    
Wind  
Wind Speed 4 mph (NE)    
Max Wind Speed 10 mph    
Max Gust Speed 17 mph    
Visibility 6 miles    
Events Snow    
Averages and records for this station are not official NWS values.
T = Trace of Precipitation, MM = Missing Value Source: NWS Daily Summary

Daily Weather History Graph

Daily Weather History Graph

Search for Another Location

Airport or City:

Trip Planner

Search our weather history database for the weather conditions in past years. The results will help you decide how hot, cold, wet, or windy it might be!

Date:

Astronomy

Dec. 08, 2012 Rise Set
Actual Time 10:00 AM AKST 3:42 PM AKST
Civil Twilight 8:59 AM AKST 4:43 PM AKST
Nautical Twilight 8:00 AM AKST 5:42 PM AKST
Astronomical Twilight 7:07 AM AKST 6:35 PM AKST
Moon 3:17 AM AKST (12/8) 1:30 PM AKST (12/8)
Length of Visible Light 7h 43m
Length of Day
5h 42m
Waning Crescent, 27% of the Moon is Illuminated
Dec 8
Waning Crescent
Dec 12
New
Dec 19
First Quarter
Dec 28
Full
Jan 4
Last Quarter

Hourly Weather History & Observations

Time (AKST) Temp. Windchill Dew Point Humidity Pressure Visibility Wind Dir Wind Speed Gust Speed Precip Events Conditions
12:53 AM 1.9 °F - -2.0 °F 83% 29.96 in 10.0 mi Calm Calm - N/A   Partly Cloudy
1:53 AM 1.9 °F -9.2 °F -2.0 °F 83% 29.96 in 10.0 mi NNE 5.8 mph - N/A   Scattered Clouds
2:53 AM -0.0 °F - -4.0 °F 83% 29.95 in 10.0 mi Calm Calm - N/A   Partly Cloudy
3:53 AM 3.0 °F -6.4 °F -2.0 °F 80% 29.93 in 10.0 mi NNE 4.6 mph - N/A   Partly Cloudy
4:53 AM -2.0 °F - -7.1 °F 79% 29.92 in 10.0 mi Calm Calm - N/A   Partly Cloudy
5:53 AM -0.9 °F -11.0 °F -5.1 °F 83% 29.90 in 10.0 mi East 4.6 mph - N/A   Clear
6:53 AM -0.0 °F -7.9 °F -4.0 °F 83% 29.89 in 10.0 mi Variable 3.5 mph - N/A   Mostly Cloudy
7:53 AM 3.9 °F -5.3 °F -0.9 °F 80% 29.86 in 10.0 mi ENE 4.6 mph - N/A   Mostly Cloudy
8:53 AM 6.1 °F -0.9 °F 1.0 °F 80% 29.84 in 10.0 mi East 3.5 mph - N/A   Overcast
9:53 AM 8.1 °F 1.4 °F 3.9 °F 83% 29.81 in 10.0 mi ENE 3.5 mph - N/A   Overcast
10:53 AM 9.0 °F 2.4 °F 3.9 °F 80% 29.79 in 10.0 mi ENE 3.5 mph - N/A   Overcast
11:53 AM 10.9 °F - 5.0 °F 77% 29.76 in 10.0 mi Calm Calm - N/A   Overcast
12:53 PM 12.9 °F - 6.1 °F 74% 29.70 in 10.0 mi Calm Calm - N/A   Overcast
1:53 PM 14.0 °F 6.5 °F 7.0 °F 74% 29.65 in 10.0 mi East 4.6 mph - N/A   Overcast
2:53 PM 16.0 °F 8.8 °F 7.0 °F 68% 29.59 in 10.0 mi NE 4.6 mph - N/A   Overcast
3:32 PM 15.8 °F 8.6 °F 6.8 °F 68% 29.53 in 4.0 mi ENE 4.6 mph - 0.00 in Snow Light Snow
3:49 PM 15.8 °F 8.6 °F 8.6 °F 73% 29.53 in 1.5 mi NE 4.6 mph - 0.00 in Snow Light Snow
3:53 PM 16.0 °F 8.8 °F 9.0 °F 74% 29.55 in 1.5 mi ENE 4.6 mph - 0.00 in Snow Light Snow
4:51 PM 15.8 °F 10.2 °F 12.2 °F 86% 29.51 in 0.8 mi NNE 3.5 mph - 0.03 in Snow Light Snow
4:53 PM 16.0 °F 8.8 °F 12.0 °F 84% 29.53 in 0.8 mi ENE 4.6 mph - 0.03 in Snow Light Snow
5:08 PM 15.8 °F 10.2 °F 12.2 °F 86% 29.50 in 0.8 mi NE 3.5 mph - 0.01 in Snow Light Snow
5:53 PM 18.0 °F 7.7 °F 15.1 °F 88% 29.47 in 0.8 mi North 8.1 mph - 0.06 in Snow Light Snow
6:53 PM 19.0 °F 10.0 °F 16.0 °F 88% 29.42 in 0.8 mi NNE 6.9 mph - 0.05 in Snow Light Snow
7:05 PM 19.4 °F 12.8 °F 15.8 °F 86% 29.39 in 1.2 mi NNE 4.6 mph - 0.00 in Snow Light Snow
7:53 PM 19.0 °F 9.0 °F 17.1 °F 92% 29.38 in 1.5 mi North 8.1 mph - 0.01 in Snow Light Snow
8:53 PM 19.9 °F 10.1 °F 17.1 °F 89% 29.36 in 4.0 mi North 8.1 mph - 0.00 in Snow Light Snow
9:53 PM 19.9 °F 8.6 °F 18.0 °F 92% 29.32 in 3.0 mi North 10.4 mph - 0.00 in Snow Light Snow
10:12 PM 19.4 °F 8.6 °F 17.6 °F 93% 29.32 in 7.0 mi NNE 9.2 mph 17.3 mph 0.00 in Snow Light Snow
10:25 PM 19.4 °F 7.9 °F 17.6 °F 93% 29.31 in 5.0 mi North 10.4 mph - 0.00 in Snow Light Snow
10:53 PM 19.9 °F 9.3 °F 17.1 °F 89% 29.31 in 3.0 mi North 9.2 mph - 0.00 in Snow Light Snow
11:49 PM 21.2 °F 12.6 °F 17.6 °F 86% 29.31 in 3.0 mi North 6.9 mph - 0.00 in Snow Light Snow
11:53 PM 21.0 °F 12.4 °F 17.1 °F 85% 29.31 in 4.0 mi North 6.9 mph - 0.01 in Snow Light Snow